D. Carlos I — CTHJ — position and weather

sailwx.info

Track history (hours):
 
Tides and Currents Weather Stations Pressure Air Temp Water Temp Dewpoint Dewpoint Depression Visibility Wind Speed Wind Dir Waves Ship Positions

Oceanographic research ship D. Carlos I (Portugal)

Detailed information on ship capabilities available from University of Delaware's Ocean Information Center.

Last reported at 2020-Aug-04 11:00 UTC. Time now 2020-Aug-07 10:03 UTC.
Position N 38°10' W 024°07'.

Length 69 m; draft 5.6 m.

MMSI: 263144000.

Date/timePositionNaut miles runAvg speedWind from/ knotsBaromVisibWave heightAir tempDewpointWater temp
2020-Aug-04 11:00N 38°10' W 024°07'13 8.8
2020-Aug-04 09:30N 38°14' W 024°24'5 8.2
2020-Aug-04 08:55N 38°15' W 024°29'3 8.2
2020-Aug-04 08:30N 38°15' W 024°34'29 8.1
2020-Aug-04 05:00N 38°20' W 025°10'9 9.0
2020-Aug-04 03:59N 38°21' W 025°21'107 8.3
2020-Aug-03 15:05N 38°24' W 027°37'18 8.4
2020-Aug-03 13:00N 38°31' W 027°58'17 8.5
2020-Aug-03 11:00N 38°37' W 028°18'7 7.1
2020-Aug-03 10:00N 38°38' W 028°27'4 8.1
2020-Aug-03 09:30N 38°35' W 028°31'4 8.8
2020-Aug-03 09:00N 38°32' W 028°35'  
2020-Jul-29 09:30N 38°48' W 028°27'52 6.1
2020-Jul-29 00:57N 39°25' W 027°41'  
Track history (hours):
 
Tides and Currents Weather Stations Pressure Air Temp Water Temp Dewpoint Dewpoint Depression Visibility Wind Speed Wind Dir Waves Ship Positions

Oceanographic research ship D. Carlos I (Portugal)

Detailed information on ship capabilities available from University of Delaware's Ocean Information Center.

Last reported at 2020-Aug-04 11:00 UTC. Time now 2020-Aug-07 10:03 UTC.
Position N 38°10' W 024°07'.

Length 69 m; draft 5.6 m.

MMSI: 263144000.

Date/timePositionNaut miles runAvg speedWind from/ knotsBaromVisibWave heightAir tempDewpointWater temp
2020-Aug-04 11:00N 38°10' W 024°07'13 8.8
2020-Aug-04 09:30N 38°14' W 024°24'5 8.2
2020-Aug-04 08:55N 38°15' W 024°29'3 8.2
2020-Aug-04 08:30N 38°15' W 024°34'29 8.1
2020-Aug-04 05:00N 38°20' W 025°10'9 9.0
2020-Aug-04 03:59N 38°21' W 025°21'107 8.3
2020-Aug-03 15:05N 38°24' W 027°37'18 8.4
2020-Aug-03 13:00N 38°31' W 027°58'17 8.5
2020-Aug-03 11:00N 38°37' W 028°18'7 7.1
2020-Aug-03 10:00N 38°38' W 028°27'4 8.1
2020-Aug-03 09:30N 38°35' W 028°31'4 8.8
2020-Aug-03 09:00N 38°32' W 028°35'  
2020-Jul-29 09:30N 38°48' W 028°27'52 6.1
2020-Jul-29 00:57N 39°25' W 027°41'  

Dump ship's entire track history